CW0630 Weather Reports


Display with metric or nautical units.
time (UTC)temp
F
wind
direction
speed
MPH
gust
MPH
rain 1hr
in
rain 24hr
in
rain mn
in
humidity
%
barometer
mb
20220625161028 85 334 1.0 3.0 0.00 0.00 0.00 62 1022.3
20220625151020 83 202 2.0 4.0 0.00 0.00 0.00 63 1022.5
20220625141021 81 209 1.0 3.0 0.00 0.00 0.00 68 1022.5
20220625131028 78 199 4.0 4.0 0.00 0.00 0.00 74 1022.5
20220625121024 70 184 3.0 4.0 0.00 0.00 0.00 85 1022.0
20220625111028 66 174 3.0 3.0 0.00 0.00 0.00 96 1021.8
20220625101029 63 93 0.0 0.0 0.00 0.00 0.00 95 1021.1
20220625091012 64 165 0.0 0.0 0.00 0.00 0.00 95 1020.9
20220625081019 65 165 0.0 0.0 0.00 0.00 0.00 93 1020.5
20220625071032 67 165 3.0 3.0 0.00 0.00 0.00 90 1020.6
20220625061024 68 161 1.0 2.0 0.00 0.00 0.00 89 1020.8
20220625051021 69 152 3.0 3.0 0.00 0.00 0.00 90 1020.5
20220625041017 70 159 2.0 2.0 0.00 0.00 0.00 88 1020.3
20220625031031 70 73 0.0 0.0 0.00 0.00 0.00 87 1019.9
20220625021020 72 73 0.0 0.0 0.00 0.00 0.00 85 1019.7
20220625011018 75 72 1.0 1.0 0.00 0.00 0.00 77 1019.0
20220625001019 78 77 1.0 2.0 0.00 0.00 0.00 70 1018.6
20220624231028 80 105 4.0 4.0 0.00 0.00 0.00 65 1018.3
20220624221017 83 96 3.0 3.0 0.00 0.00 0.00 60 1018.0
20220624211024 82 102 1.0 3.0 0.00 0.00 0.00 60 1018.2
20220624201021 84 141 2.0 3.0 0.00 0.00 0.00 63 1018.2
20220624191031 81 99 2.0 2.0 0.00 0.01 0.00 64 1018.7
20220624181018 80 169 1.0 1.0 0.00 0.02 0.00 66 1018.9
20220624171032 78 56 3.0 3.0 0.00 0.09 0.00 68 1019.3